DW5714 Weather Reports


time (UTC)temp
C
wind
direction
speed
KPH
gust
KPH
rain 1hr
cm
rain 24hr
cm
rain mn
cm
humidity
%
barometer
mb
20260506164533 12 153 0.0 16.1 0.00 0.00 0.00 99 1007.3
20260506163032 12 119 1.6 8.0 0.00 0.00 0.00 99 1007.4
20260506161533 12 155 0.0 9.7 0.00 0.00 0.00 99 1007.4
20260506160033 12 117 0.0 9.7 0.00 0.00 0.00 99 1007.5
20260506154530 12 136 0.0 6.4 0.00 0.00 0.00 99 1007.7
20260506153040 12 192 1.6 12.9 0.00 0.00 0.00 99 1007.5
20260506151529 12 132 4.8 11.3 0.00 0.00 0.00 99 1007.4
20260506150028 12 158 0.0 8.0 0.00 0.00 0.00 99 1007.4
20260506144549 12 175 0.0 6.4 0.00 0.00 0.00 99 1007.4
20260506143028 12 141 1.6 9.7 0.00 0.00 0.00 99 1007.1
20260506141525 12 164 1.6 8.0 0.00 0.00 0.00 99 1007.4
20260506140035 11 158 3.2 4.8 0.00 0.00 0.00 99 1007.6
20260506134523 11 134 0.0 6.4 0.00 0.00 0.00 99 1008.0
20260506133020 11 153 0.0 0.0 0.00 0.00 0.00 99 1008.3
20260506131525 11 126 0.0 0.0 0.00 0.00 0.00 99 1008.7
20260506130018 11 126 0.0 0.0 0.00 0.00 0.00 99 1008.6
20260506124514 11 126 0.0 0.0 0.00 0.00 0.00 99 1008.1
20260506123014 11 126 0.0 0.0 0.00 0.00 0.00 99 1008.3
20260506121510 11 126 0.0 0.0 0.00 0.00 0.00 99 1008.3
20260506120018 11 126 0.0 0.0 0.00 0.00 0.00 99 1008.3
20260506114517 11 126 0.0 0.0 0.00 0.00 0.00 99 1008.3
20260506113007 11 126 0.0 3.2 0.00 0.00 0.00 98 1008.3
20260506111506 11 124 0.0 0.0 0.00 0.00 0.00 98 1008.6
20260506110004 11 126 0.0 0.0 0.00 0.00 0.00 98 1008.7
20260506104503 11 126 0.0 0.0 0.00 0.00 0.00 97 1008.5
20260506103002 11 126 0.0 4.8 0.00 0.00 0.00 97 1008.3
20260506101600 11 132 0.0 0.0 0.00 0.00 0.00 96 1008.1
20260506100109 12 132 0.0 4.8 0.00 0.00 0.00 94 1008.1
20260506094605 12 144 0.0 0.0 0.00 0.00 0.00 93 1007.9
20260506093058 12 144 0.0 6.4 0.00 0.00 0.00 91 1007.7
20260506091557 12 132 0.0 4.8 0.00 0.00 0.00 93 1007.7
20260506090055 12 159 0.0 4.8 0.00 0.00 0.00 97 1007.9
20260506084556 11 155 0.0 0.0 0.00 0.00 0.00 98 1008.0
20260506083057 11 154 0.0 0.0 0.00 0.00 0.00 99 1007.7
20260506081605 11 173 0.0 3.2 0.00 0.00 0.00 99 1007.7
20260506073051 12 173 0.0 4.8 0.00 0.00 0.00 99 1007.9
20260506071548 12 33 0.0 0.0 0.00 0.00 0.00 99 1008.1
20260506061546 11 342 0.0 0.0 0.00 0.00 0.00 99 1008.8
20260506044544 12 343 0.0 0.0 0.00 0.00 0.00 99 1009.8
20260506043027 12 343 0.0 3.2 0.00 0.00 0.00 99 1009.9
20260506041525 12 5 0.0 0.0 0.00 0.00 0.00 99 1009.9
20260506040022 12 40 0.0 3.2 0.00 0.00 0.00 99 1010.0
20260506034522 12 41 0.0 0.0 0.00 0.00 0.00 99 1010.0
20260506033026 12 41 0.0 0.0 0.00 0.00 0.00 99 1010.1
20260506031537 12 41 0.0 0.0 0.00 0.00 0.00 99 1009.9
20260506030018 13 41 0.0 0.0 0.00 0.00 0.00 99 1009.8
20260506024526 13 41 0.0 4.8 0.00 0.00 0.00 99 1009.7
20260506023018 13 79 0.0 0.0 0.00 0.00 0.00 99 1009.7
20260506021518 13 79 0.0 0.0 0.00 0.00 0.00 99 1009.6
20260506020017 13 79 0.0 4.8 0.00 0.00 0.00 99 1009.4
20260506014516 13 79 0.0 0.0 0.00 0.00 0.00 99 1009.6
20260506013020 13 79 0.0 0.0 0.00 0.00 0.00 99 1009.4
20260506011518 13 79 0.0 0.0 0.00 0.00 0.00 99 1009.1
20260506010040 13 79 0.0 0.0 0.00 0.00 0.00 99 1008.9
20260506004514 13 79 0.0 0.0 0.00 0.00 0.00 98 1008.8
20260506003014 13 79 0.0 0.0 0.00 0.00 0.00 98 1008.6
20260506001513 14 78 0.0 1.6 0.00 0.00 0.00 98 1008.6
20260506000014 13 78 0.0 0.0 0.00 0.00 0.00 98 1008.5
20260505234512 14 78 0.0 0.0 0.00 0.00 0.00 98 1008.4
20260505233012 14 78 0.0 0.0 0.00 0.00 0.00 98 1008.5
20260505231512 15 78 0.0 3.2 0.00 0.00 0.00 98 1008.3
20260505230009 15 78 0.0 0.0 0.00 0.00 0.00 97 1008.2
20260505224509 15 78 0.0 1.6 0.00 0.00 0.00 97 1008.5
20260505223008 15 78 0.0 1.6 0.00 0.00 0.00 96 1008.1
20260505221508 15 78 0.0 0.0 0.00 0.00 0.00 96 1007.6
20260505220007 15 78 0.0 0.0 0.00 0.00 0.00 96 1007.5
20260505214507 15 78 0.0 4.8 0.00 0.00 0.00 96 1007.8
20260505213017 15 27 0.0 0.0 0.00 0.00 0.00 95 1007.9
20260505211505 15 27 0.0 1.6 0.00 0.00 0.00 94 1007.7
20260505210004 14 340 0.0 8.0 0.00 0.00 0.00 92 1008.4
20260505204502 15 5 0.0 11.3 0.00 0.00 0.00 87 1008.0
20260505203059 19 343 4.8 17.7 0.00 0.00 0.00 62 1008.4
20260505201559 21 219 3.2 17.7 0.00 0.00 0.00 44 1006.6
20260505200057 22 184 4.8 22.5 0.00 0.00 0.00 42 1006.3
20260505194557 22 192 8.0 29.0 0.00 0.00 0.00 43 1006.1
20260505193056 24 175 11.3 22.5 0.00 0.00 0.00 40 1006.1
20260505191605 23 145 9.7 25.7 0.00 0.00 0.00 41 1006.4
20260505190100 23 148 1.6 14.5 0.00 0.00 0.00 41 1006.7
20260505184551 23 219 9.7 20.9 0.00 0.00 0.00 41 1007.0
20260505183112 25 298 4.8 29.0 0.00 0.00 0.00 40 1007.0
20260505181548 23 272 8.0 24.1 0.00 0.00 0.00 38 1007.4
20260505180048 24 101 6.4 29.0 0.00 0.00 0.00 37 1007.5
20260505174546 23 112 12.9 37.0 0.00 0.00 0.00 42 1007.6
20260505173051 24 205 12.9 30.6 0.00 0.00 0.00 41 1007.8
20260505171548 23 131 6.4 35.4 0.00 0.00 0.00 44 1007.5
20260505170040 23 54 4.8 12.9 0.00 0.00 0.00 46 1007.5